Tracking 18624 objects as of 1-May-2017
HD Live streaming from Space Station
objects crossing your sky now

EDUSAT

Track EDUSAT now!
10-day predictions
EDUSAT is classified as:


NORAD ID: 37788
Int'l Code: 2011-044A
Perigee: 639.9 km
Apogee: 692.2 km
Inclination: 98.2 °
Period: 97.9 minutes
Semi major axis: 7037 km
RCS: 0.1421 m2 (medium)
Launch date: August 17, 2011
Source: Italy (IT)
Launch site: Orenburg, Russia (OREN)

EduSat is a microsatellite built by the University of Rome.
Your satellite tracking list
Your tracking list is empty





NASA's NSSDC Master Catalog

Two Line Element Set (TLE):
1 37788U 11044A   17119.91981326 +.00000180 +00000-0 +38030-4 0  9998
2 37788 098.2427 238.2991 0037149 239.2602 234.4279 14.70682540305791
Source of the keplerian elements: AFSPC